Location: Cudham
(51.3000°N, 0.0667°E)
Time: 17:17:59
(UTC+00:00)

USA 229 DEB - Pass Details

Date: 22 April 2026
Orbit: 844 x 1364 km, 63.4° (Epoch: 10 January)

Event Time Altitude Azimuth Distance (km) Brightness Sun altitude
Rises 01:43:41 0° 311° (NW) 4,046 6.9 -22.5°
Reaches altitude 10° 01:46:54 10° 298° (WNW) 3,162 6.1 -22.3°
Enters shadow 01:52:16 24° 254° (WSW) 2,395 5.1 -21.9°
